GW3598 Weather Reports


time (UTC)temp
F
wind
direction
speed
knots
gust
knots
rain 1hr
in
rain 24hr
in
rain mn
in
humidity
%
barometer
mb
20260906205831 86 186 0.9 2.6 0.00 0.00 0.00 56 1018.7
20260906205328 85 185 1.7 1.7 0.00 0.00 0.00 58 1018.8
20260906204823 84 176 3.5 3.5 0.00 0.00 0.00 56 1018.9
20260906204322 84 198 1.7 3.5 0.00 0.00 0.00 58 1019.0
20260906203821 84 155 1.7 2.6 0.00 0.00 0.00 57 1018.9
20260906203317 85 179 3.5 3.5 0.00 0.00 0.00 57 1019.1
20260906202814 85 166 3.5 8.7 0.00 0.00 0.00 55 1019.1
20260906202314 85 202 1.7 2.6 0.00 0.00 0.00 57 1019.1
20260906201808 85 173 0.9 0.9 0.00 0.00 0.00 57 1019.0
20260906201308 85 183 0.9 1.7 0.00 0.00 0.00 58 1018.9
20260906200804 85 185 1.7 1.7 0.00 0.00 0.00 59 1019.1
20260906200259 86 177 2.6 3.5 0.00 0.00 0.00 56 1019.3
20260906195754 85 160 2.6 2.6 0.00 0.00 0.00 56 1019.3
20260906195251 85 216 0.9 0.9 0.00 0.00 0.00 60 1019.1
20260906194747 84 199 0.9 0.9 0.00 0.00 0.00 59 1019.4
20260906194242 84 231 4.3 6.1 0.00 0.00 0.00 58 1019.1
20260906193737 84 181 0.9 0.0 0.00 0.00 0.00 61 1019.4
20260906193231 84 167 1.7 2.6 0.00 0.00 0.00 60 1019.4
20260906192727 84 186 1.7 2.6 0.00 0.00 0.00 60 1019.5
20260906192222 84 198 1.7 3.5 0.00 0.00 0.00 59 1019.4
20260906191715 84 207 1.7 2.6 0.00 0.00 0.00 60 1019.5
20260906191210 83 96 1.7 1.7 0.00 0.00 0.00 61 1019.4
20260906190709 84 233 5.2 6.1 0.00 0.00 0.00 58 1019.6
20260906190204 83 197 0.9 0.9 0.00 0.00 0.00 62 1019.7
20260906185703 83 169 1.7 2.6 0.00 0.00 0.00 62 1019.8
20260906185202 82 222 2.6 3.5 0.00 0.00 0.00 63 1019.5
20260906184658 82 207 0.9 0.9 0.00 0.00 0.00 64 1019.8
20260906184153 81 193 2.6 3.5 0.00 0.00 0.00 65 1019.8
20260906183649 82 179 2.6 5.2 0.00 0.00 0.00 66 1020.0
20260906183145 82 200 1.7 2.6 0.00 0.00 0.00 65 1020.0
20260906182645 81 194 0.9 0.9 0.00 0.00 0.00 66 1020.2
20260906182141 81 114 0.0 0.0 0.00 0.00 0.00 66 1020.1
20260906181636 81 170 2.6 2.6 0.00 0.00 0.00 65 1020.1
20260906181132 80 191 0.9 0.9 0.00 0.00 0.00 68 1020.0
20260906180627 80 177 0.9 1.7 0.00 0.00 0.00 70 1020.1
20260906180126 80 185 1.7 1.7 0.00 0.00 0.00 69 1020.3
20260906175624 79 181 0.0 0.0 0.00 0.00 0.00 69 1020.4
20260906175120 79 199 2.6 2.6 0.00 0.00 0.00 68 1020.4
20260906174618 79 187 1.7 3.5 0.00 0.00 0.00 70 1020.5
20260906174114 78 193 0.0 0.9 0.00 0.00 0.00 71 1020.7
20260906173609 78 197 0.9 1.7 0.00 0.00 0.00 75 1020.6
20260906173104 77 185 0.9 1.7 0.00 0.00 0.00 72 1020.8
20260906172603 77 186 3.5 6.1 0.00 0.00 0.00 74 1020.9
20260906172059 76 212 2.6 3.5 0.00 0.00 0.00 75 1021.0
20260906171558 77 174 3.5 6.1 0.00 0.00 0.00 74 1021.1
20260906171054 77 156 3.5 3.5 0.00 0.00 0.00 75 1021.1
20260906170550 77 200 5.2 6.1 0.00 0.00 0.00 73 1021.3
20260906170049 77 217 1.7 1.7 0.00 0.00 0.00 74 1021.3
20260906165546 76 207 0.9 0.9 0.00 0.00 0.00 77 1021.3
20260906165041 76 310 0.9 0.9 0.00 0.00 0.00 76 1021.4
20260906164540 76 200 1.7 1.7 0.00 0.00 0.00 78 1021.5
20260906164036 75 178 2.6 2.6 0.00 0.00 0.00 78 1021.5
20260906163531 75 212 1.7 1.7 0.00 0.00 0.00 77 1021.5
20260906163027 75 185 2.6 2.6 0.00 0.00 0.00 77 1021.4
20260906162524 75 217 3.5 3.5 0.00 0.00 0.00 78 1021.3
20260906162019 75 154 0.9 0.9 0.00 0.00 0.00 79 1021.5
20260906161514 74 179 0.9 0.9 0.00 0.00 0.00 79 1021.4
20260906161013 73 178 0.0 0.0 0.00 0.00 0.00 81 1021.4
20260906160512 73 185 3.5 3.5 0.00 0.00 0.00 80 1021.4
20260906160011 72 171 0.0 0.0 0.00 0.00 0.00 82 1021.1
20260906155509 72 179 0.0 0.0 0.00 0.00 0.00 82 1021.2
20260906155005 72 180 1.7 1.7 0.00 0.00 0.00 83 1021.3
20260906154500 71 188 0.0 0.0 0.00 0.00 0.00 83 1021.3
20260906153959 71 190 0.9 1.7 0.00 0.00 0.00 84 1021.1
20260906153457 71 185 1.7 1.7 0.00 0.00 0.00 83 1021.2
20260906152953 70 167 0.0 0.0 0.00 0.00 0.00 84 1021.4
20260906152453 69 37 0.9 0.9 0.00 0.00 0.00 85 1021.3
20260906151952 69 34 0.0 0.0 0.00 0.00 0.00 85 1021.4
20260906151447 68 188 0.0 0.0 0.00 0.00 0.00 87 1021.1
20260906150938 68 199 2.6 2.6 0.00 0.00 0.00 87 1021.2
20260906150433 67 174 0.0 0.0 0.00 0.00 0.00 87 1021.2
20260906145932 68 174 2.6 2.6 0.00 0.00 0.00 86 1021.4
20260906145431 67 183 1.7 1.7 0.00 0.00 0.00 87 1021.4
20260906144926 66 183 0.0 0.0 0.00 0.00 0.00 88 1021.5
20260906144420 66 172 0.0 0.0 0.00 0.00 0.00 89 1021.4
20260906143911 66 198 0.0 0.0 0.00 0.00 0.00 89 1021.3
20260906143406 66 203 0.9 0.9 0.00 0.00 0.00 88 1021.4
20260906142902 65 176 0.0 0.9 0.00 0.00 0.00 90 1021.1
20260906142401 64 192 0.9 0.9 0.00 0.00 0.00 90 1021.3
20260906141856 64 200 1.7 1.7 0.00 0.00 0.00 89 1021.3
20260906141356 64 201 0.9 1.7 0.00 0.00 0.00 90 1021.2
20260906140855 64 203 0.0 0.0 0.00 0.00 0.00 90 1021.2
20260906140350 64 203 0.0 0.0 0.00 0.00 0.00 90 1021.4
20260906135848 63 93 0.0 0.0 0.00 0.00 0.00 91 1021.4
20260906135343 63 51 0.0 0.0 0.00 0.00 0.00 91 1021.6
20260906134838 62 208 0.0 0.0 0.00 0.00 0.00 92 1021.4
20260906134333 62 59 0.0 0.0 0.00 0.00 0.00 92 1021.6
20260906133829 62 47 0.9 0.9 0.00 0.00 0.00 93 1021.7
20260906133324 61 45 0.0 0.0 0.00 0.00 0.00 93 1021.6
20260906132819 61 82 0.0 0.0 0.00 0.00 0.00 94 1021.6
20260906132314 60 165 0.9 0.9 0.00 0.00 0.00 95 1021.2
20260906131810 60 176 0.0 0.0 0.00 0.00 0.00 96 1021.2
20260906131305 60 170 0.9 0.9 0.00 0.00 0.00 96 1021.0
20260906130801 60 181 0.9 0.9 0.00 0.00 0.00 96 1021.1
20260906130255 60 189 0.9 0.9 0.00 0.00 0.00 96 1021.3
20260906125754 60 190 0.0 0.0 0.00 0.00 0.00 96 1021.3
20260906125252 60 190 0.0 0.0 0.00 0.00 0.00 95 1021.4
20260906124752 60 190 0.0 0.0 0.00 0.00 0.00 95 1021.8
20260906124248 60 190 0.9 0.9 0.00 0.00 0.00 96 1021.8
20260906123747 60 190 0.0 0.0 0.00 0.00 0.00 96 1021.7
20260906123242 60 190 0.0 0.0 0.00 0.00 0.00 96 1021.3
20260906122742 60 190 0.0 0.9 0.00 0.00 0.00 96 1021.2
20260906122237 60 196 0.0 0.0 0.00 0.00 0.00 96 1021.5
20260906121733 60 196 0.0 0.0 0.00 0.00 0.00 97 1021.5
20260906121230 60 202 0.0 0.0 0.00 0.00 0.00 97 1021.3
20260906120725 60 202 0.0 0.0 0.00 0.00 0.00 97 1021.0
20260906120222 60 202 0.0 0.0 0.00 0.00 0.00 97 1021.3
20260906115717 60 202 0.0 0.0 0.00 0.00 0.00 96 1021.2
20260906115212 60 202 0.0 0.0 0.00 0.00 0.00 96 1021.3
20260906114711 60 203 0.9 0.9 0.00 0.00 0.00 97 1021.2
20260906114206 59 183 0.9 0.9 0.00 0.00 0.00 97 1020.9
20260906113701 59 183 0.9 0.9 0.00 0.00 0.00 97 1021.1
20260906113201 59 183 0.9 0.9 0.00 0.00 0.00 97 1021.0
20260906112700 59 183 0.0 0.0 0.00 0.00 0.00 97 1020.8
20260906112158 59 183 0.9 0.9 0.00 0.00 0.00 97 1020.9
20260906111657 59 182 0.0 0.0 0.00 0.00 0.00 97 1020.9
20260906111151 59 182 0.0 0.0 0.00 0.00 0.00 97 1020.8
20260906110646 59 182 0.0 0.0 0.00 0.00 0.00 97 1020.7
20260906110142 59 182 0.0 0.0 0.00 0.00 0.00 98 1020.5
20260906105635 59 182 0.0 0.0 0.00 0.00 0.00 98 1020.4
20260906105132 59 183 0.0 0.0 0.00 0.00 0.00 98 1020.4
20260906104631 59 183 0.0 0.0 0.00 0.00 0.00 98 1020.8
20260906104130 59 183 1.7 1.7 0.00 0.00 0.00 98 1020.6
20260906103629 59 174 0.9 0.9 0.00 0.00 0.00 98 1020.6
20260906103124 59 174 0.0 0.0 0.00 0.00 0.00 98 1020.4
20260906102619 59 174 0.0 0.0 0.00 0.00 0.00 98 1020.1
20260906102108 59 174 0.0 0.0 0.00 0.00 0.00 98 1020.0
20260906101602 59 174 0.0 0.0 0.00 0.00 0.00 98 1020.0
20260906101052 59 174 0.0 0.0 0.00 0.00 0.00 98 1020.2
20260906100548 59 174 0.0 0.0 0.00 0.00 0.00 98 1020.2
20260906100047 59 173 0.0 0.0 0.00 0.00 0.00 98 1019.9
20260906095547 59 174 0.0 0.0 0.00 0.00 0.00 98 1020.0
20260906095043 59 174 0.0 0.0 0.00 0.00 0.00 98 1020.0
20260906094541 59 174 0.0 0.0 0.00 0.00 0.00 98 1020.0
20260906094037 59 174 0.0 0.0 0.00 0.00 0.00 98 1020.2
20260906093533 59 174 0.0 0.0 0.00 0.00 0.00 98 1020.2
20260906093028 59 174 0.0 0.0 0.00 0.00 0.00 98 1020.0
20260906092523 59 174 0.0 0.0 0.00 0.00 0.00 98 1019.9
20260906092018 59 174 0.0 0.0 0.00 0.00 0.00 98 1020.2
20260906091514 60 174 0.0 0.0 0.00 0.00 0.00 98 1020.1
20260906091010 60 174 0.0 0.0 0.00 0.00 0.00 97 1020.2
20260906090505 60 174 0.0 0.0 0.00 0.00 0.00 97 1020.2
20260906090004 60 174 0.0 0.0 0.00 0.00 0.00 97 1019.9
20260906085504 60 174 0.0 0.0 0.00 0.00 0.00 97 1020.1
20260906085003 60 174 0.0 0.0 0.00 0.00 0.00 97 1020.1
20260906084458 60 174 0.0 0.0 0.00 0.00 0.00 97 1020.1
20260906083957 60 174 0.0 0.0 0.00 0.00 0.00 97 1020.2
20260906083453 60 174 0.0 0.0 0.00 0.00 0.00 97 1020.4
20260906082951 60 173 0.0 0.0 0.00 0.00 0.00 97 1020.3
20260906082447 60 173 0.0 0.0 0.00 0.00 0.00 97 1020.4
20260906081944 60 173 0.0 0.0 0.00 0.00 0.00 97 1020.3
20260906081443 60 188 0.0 0.0 0.00 0.00 0.00 97 1020.3
20260906080940 60 189 0.0 0.0 0.00 0.00 0.00 97 1020.3
20260906080437 60 188 0.0 0.0 0.00 0.00 0.00 98 1020.2
20260906075937 60 189 0.0 0.9 0.00 0.00 0.00 98 1020.1
20260906075432 61 181 0.9 0.9 0.00 0.00 0.00 98 1020.2
20260906074927 61 181 0.0 0.0 0.00 0.00 0.00 98 1020.2
20260906074426 61 181 0.0 0.0 0.00 0.00 0.00 98 1020.3
20260906073925 61 181 0.0 0.0 0.00 0.00 0.00 98 1020.4
20260906073420 61 180 0.0 0.0 0.00 0.00 0.00 98 1020.1
20260906072917 61 181 0.0 0.0 0.00 0.00 0.00 98 1020.1
20260906072412 61 181 0.0 0.0 0.00 0.00 0.00 98 1019.9
20260906071908 61 180 0.0 0.0 0.00 0.00 0.00 98 1020.2
20260906071403 61 178 0.9 0.9 0.00 0.00 0.00 98 1020.4
20260906070859 61 177 0.0 0.0 0.00 0.00 0.00 98 1020.4
20260906070355 62 177 0.0 0.0 0.00 0.00 0.00 98 1020.5
20260906065850 62 177 0.0 0.0 0.00 0.00 0.00 98 1020.5
20260906065344 62 178 0.0 0.0 0.00 0.00 0.00 98 1020.8
20260906064840 62 176 0.9 0.9 0.00 0.00 0.00 98 1020.7
20260906064336 62 188 0.9 0.9 0.00 0.00 0.00 98 1020.7
20260906063830 62 188 0.0 0.0 0.00 0.00 0.00 98 1020.7
20260906063326 62 188 0.0 0.0 0.00 0.00 0.00 98 1020.9
20260906062821 62 188 0.0 0.0 0.00 0.00 0.00 98 1020.8
20260906062320 62 188 0.0 0.0 0.00 0.00 0.00 98 1020.8
20260906061815 62 188 0.0 0.0 0.00 0.00 0.00 98 1020.8
20260906061313 62 188 0.0 0.0 0.00 0.00 0.00 98 1021.0
20260906060812 62 188 0.0 0.0 0.00 0.00 0.00 98 1020.9
20260906060311 62 188 0.0 0.0 0.00 0.00 0.00 98 1021.0
20260906055806 62 188 0.0 0.0 0.00 0.00 0.00 98 1021.0
20260906055301 62 188 0.0 0.0 0.00 0.00 0.00 98 1020.9
20260906054756 62 188 0.0 0.0 0.00 0.00 0.00 98 1020.9
20260906054252 62 188 0.0 0.0 0.00 0.00 0.00 98 1020.7
20260906053748 62 188 0.0 0.0 0.00 0.00 0.00 98 1020.9
20260906053244 62 188 0.0 0.0 0.00 0.00 0.00 97 1020.8
20260906052738 62 188 0.0 0.0 0.00 0.00 0.00 97 1020.7
20260906052235 62 188 0.0 0.0 0.00 0.00 0.00 97 1020.8
20260906051731 62 188 0.0 0.0 0.00 0.00 0.00 97 1020.6
20260906051231 62 188 0.0 0.0 0.00 0.00 0.00 97 1020.8
20260906050726 62 188 0.0 0.0 0.00 0.00 0.00 97 1020.6
20260906050221 62 188 0.0 0.0 0.00 0.00 0.00 97 1020.5
20260906045720 62 188 0.0 0.0 0.00 0.00 0.00 97 1020.6
20260906045215 62 188 0.0 0.0 0.00 0.00 0.00 97 1020.8
20260906044711 62 188 0.0 0.0 0.00 0.00 0.00 96 1020.8
20260906044206 62 188 0.0 0.0 0.00 0.00 0.00 96 1020.9
20260906043702 62 188 0.0 0.0 0.00 0.00 0.00 96 1021.0
20260906043157 63 188 0.0 0.0 0.00 0.00 0.00 95 1020.9
20260906042657 63 188 0.0 0.0 0.00 0.00 0.00 95 1020.7
20260906042150 63 188 0.0 0.0 0.00 0.00 0.00 95 1020.4
20260906041646 64 188 0.0 0.0 0.00 0.00 0.00 94 1020.7
20260906041141 64 188 0.0 0.0 0.00 0.00 0.00 94 1020.6
20260906040637 64 188 0.0 0.0 0.00 0.00 0.00 93 1020.5
20260906040132 64 195 0.9 0.9 0.00 0.00 0.00 93 1020.4
20260906035627 64 195 0.0 0.0 0.00 0.00 0.00 93 1020.4
20260906035123 64 195 0.0 0.0 0.00 0.00 0.00 93 1020.4
20260906034617 64 195 0.9 0.9 0.00 0.00 0.00 92 1020.3
20260906034112 65 195 0.0 0.0 0.00 0.00 0.00 92 1020.5
20260906033608 65 196 0.0 0.0 0.00 0.00 0.00 92 1020.6
20260906033103 65 199 0.0 0.0 0.00 0.00 0.00 91 1020.5
20260906032600 65 208 0.0 0.0 0.00 0.00 0.00 91 1020.8
20260906032059 65 195 0.9 0.9 0.00 0.00 0.00 91 1020.7
20260906031555 65 188 0.9 1.7 0.00 0.00 0.00 91 1020.7
20260906031050 66 184 0.9 0.9 0.00 0.00 0.00 91 1020.9
20260906030550 66 173 0.0 0.0 0.00 0.00 0.00 90 1020.8
20260906030049 66 173 0.9 0.9 0.00 0.00 0.00 90 1020.8
20260906025543 66 185 0.9 0.9 0.00 0.00 0.00 90 1020.8
20260906025041 66 214 2.6 2.6 0.00 0.00 0.00 89 1020.7
20260906024537 66 172 1.7 1.7 0.00 0.00 0.00 89 1020.7
20260906024032 66 176 2.6 2.6 0.00 0.00 0.00 89 1020.6
20260906023528 66 176 2.6 3.5 0.00 0.00 0.00 89 1020.7
20260906023022 67 171 5.2 6.1 0.00 0.00 0.00 89 1020.7
20260906022517 67 213 1.7 1.7 0.00 0.00 0.00 89 1020.8
20260906022013 67 185 1.7 1.7 0.00 0.00 0.00 89 1020.7
20260906021509 67 196 1.7 2.6 0.00 0.00 0.00 89 1020.6
20260906021009 67 196 1.7 1.7 0.00 0.00 0.00 89 1020.6
20260906020508 67 189 0.0 0.0 0.00 0.00 0.00 90 1020.3
20260906020007 67 192 1.7 0.9 0.00 0.00 0.00 89 1020.3
20260906015501 67 200 0.9 0.9 0.00 0.00 0.00 90 1020.3
20260906015000 67 193 0.9 0.9 0.00 0.00 0.00 90 1019.9
20260906014455 67 179 0.9 0.9 0.00 0.00 0.00 90 1019.8
20260906013951 67 179 0.9 0.9 0.00 0.00 0.00 90 1019.7
20260906013446 66 146 0.9 0.9 0.00 0.00 0.00 91 1019.4
20260906012942 66 84 0.0 0.9 0.00 0.00 0.00 91 1019.4
20260906012436 66 83 0.0 0.0 0.00 0.00 0.00 91 1019.1
20260906011936 67 65 0.0 0.0 0.00 0.00 0.00 90 1018.9
20260906011431 67 64 0.0 0.0 0.00 0.00 0.00 90 1018.6
20260906010926 67 64 0.0 0.0 0.00 0.00 0.00 89 1018.6
20260906010422 67 64 0.0 0.0 0.00 0.00 0.00 89 1018.6
20260906005918 67 64 0.9 0.0 0.00 0.00 0.00 89 1018.5
20260906005418 67 65 0.0 0.0 0.00 0.00 0.00 88 1018.5
20260906004916 67 65 0.0 0.0 0.00 0.00 0.00 88 1018.3
20260906004411 67 65 0.0 0.0 0.00 0.00 0.00 89 1018.5
20260906003907 67 65 0.0 0.0 0.00 0.00 0.00 88 1018.5
20260906003402 67 65 0.9 0.9 0.00 0.00 0.00 88 1018.4
20260906002857 68 61 0.0 0.0 0.00 0.00 0.00 88 1018.5
20260906002356 68 61 0.0 0.0 0.00 0.00 0.00 87 1018.6
20260906001852 68 61 0.0 0.0 0.00 0.00 0.00 87 1018.5
20260906001348 68 61 0.0 0.0 0.00 0.00 0.00 86 1018.7
20260906000843 68 61 0.0 0.0 0.00 0.00 0.00 86 1018.6
20260906000343 68 61 0.0 0.0 0.00 0.00 0.00 86 1018.8
20260905235842 69 61 0.0 0.0 0.00 0.00 0.00 85 1018.8
20260905235337 69 61 0.0 0.0 0.00 0.00 0.00 84 1018.6
20260905234832 69 68 0.9 0.9 0.00 0.00 0.00 83 1018.7
20260905234327 69 62 0.0 0.0 0.00 0.00 0.00 83 1018.5
20260905233822 69 131 0.0 0.9 0.00 0.00 0.00 83 1018.5
20260905233317 70 170 0.9 0.9 0.00 0.00 0.00 82 1018.8
20260905232816 70 170 0.9 0.9 0.00 0.00 0.00 82 1018.9
20260905232313 70 191 0.9 0.9 0.00 0.00 0.00 82 1018.9
20260905231808 70 167 0.9 0.9 0.00 0.00 0.00 81 1018.6
20260905231303 70 249 0.9 0.9 0.00 0.00 0.00 81 1018.7
20260905230759 70 190 1.7 0.9 0.00 0.00 0.00 82 1018.3
20260905230257 71 203 1.7 2.6 0.00 0.00 0.00 81 1018.3
20260905225757 71 62 0.9 0.9 0.00 0.00 0.00 81 1018.3
20260905225252 71 216 1.7 2.6 0.00 0.00 0.00 81 1018.4
20260905224751 71 212 1.7 1.7 0.00 0.00 0.00 81 1018.5
20260905224247 70 198 2.6 2.6 0.00 0.00 0.00 81 1018.7
20260905223742 70 183 0.0 0.0 0.00 0.00 0.00 82 1018.7
20260905223239 70 198 1.7 1.7 0.00 0.00 0.00 81 1018.8
20260905222735 70 110 0.0 0.0 0.00 0.00 0.00 82 1018.7
20260905222234 70 76 0.0 0.0 0.00 0.00 0.00 80 1018.8
20260905221730 70 96 0.9 0.9 0.00 0.00 0.00 81 1018.8
20260905221227 70 186 0.9 0.9 0.00 0.00 0.00 81 1018.7
20260905220722 70 204 0.9 0.9 0.00 0.00 0.00 82 1018.6
20260905220218 70 205 0.0 0.0 0.00 0.00 0.00 82 1018.8
20260905215717 70 176 1.7 2.6 0.00 0.00 0.00 81 1019.0
20260905215213 70 173 0.9 0.9 0.00 0.00 0.00 82 1019.1
20260905214709 70 189 0.0 0.0 0.00 0.00 0.00 82 1018.8
20260905214204 70 172 3.5 5.2 0.00 0.00 0.00 82 1019.1
20260905213659 70 214 2.6 2.6 0.00 0.00 0.00 82 1019.1
20260905213155 70 184 0.9 0.0 0.00 0.00 0.00 81 1019.1
20260905212650 70 206 0.9 0.9 0.00 0.00 0.00 81 1019.3
20260905212149 70 196 0.0 0.0 0.00 0.00 0.00 82 1019.4
20260905211644 70 183 0.0 0.9 0.00 0.00 0.00 82 1019.5
20260905211140 70 163 0.0 0.9 0.00 0.00 0.00 81 1019.8
20260905210636 71 203 0.0 0.0 0.00 0.00 0.00 80 1020.1
20260905210131 71 163 1.7 1.7 0.00 0.00 0.00 81 1020.0